Wind_Speed
20 19 17 10 2 2 2 2 5 6 8 7 8 10 13 13 13 12 10 11 11 11 13 10 6 2 3 5 8 10 8 7 6 5 5 6 7 9 10 10 9 8 9
22 20 16 12 6 4 3 3 5 9 10 9 9 10 11 12 11 9 10 12 12 15 14 11 8 7 9 9 11 12 11 9 6 6 7 7 8 9 9 10 9 10 10
21 22 18 14 9 6 7 7 7 8 9 11 10 9 10 11 10 10 10 10 13 17 17 16 15 14 13 13 13 12 11 10 10 10 10 10 10 9 10 12 13 14 15
19 19 19 18 11 10 11 10 10 9 10 9 11 11 11 12 11 11 11 13 15 17 20 20 18 17 16 13 12 12 11 10 10 11 12 12 13 13 13 15 17 20 22
21 20 16 17 15 13 15 15 15 11 12 12 11 11 14 14 13 14 14 14 14 14 15 15 14 14 14 13 11 11 10 10 11 12 12 11 12 15 18 19 21 22 23
21 22 20 18 20 20 20 19 21 17 15 14 11 12 12 14 16 16 16 14 15 15 14 14 14 14 13 11 11 10 10 11 11 12 13 15 19 20 23 23 23 25 28
23 20 22 21 23 25 24 20 21 20 21 19 18 15 14 14 15 17 18 17 18 18 17 15 14 12 12 12 12 12 12 13 15 17 20 22 22 21 22 25 27 29 30
23 19 20 21 23 20 25 16 20 28 24 22 20 18 17 19 17 17 19 19 18 17 16 13 14 14 14 14 14 14 15 17 18 19 20 23 25 25 25 27 27 29 31
24 22 21 21 21 22 22 29 29 31 26 25 25 23 21 20 19 19 19 17 16 15 16 17 16 15 15 17 17 16 17 18 20 22 24 26 26 26 27 28 28 30 31
28 24 22 22 21 25 25 26 24 15 26 22 23 22 22 22 22 20 19 17 18 19 19 19 19 18 18 17 16 18 20 21 21 23 25 26 26 26 28 28 30 32 34
30 26 25 26 23 23 24 21 28 23 25 22 24 20 19 22 22 20 18 18 20 20 19 19 17 17 17 18 20 22 23 23 24 24 26 28 28 28 28 31 34 34 32
31 29 25 25 24 25 23 20 18 14 17 24 22 22 21 20 24 23 20 18 19 20 20 19 19 20 21 22 24 25 25 25 26 27 27 29 29 31 34 34 32 31 32
30 29 27 24 25 22 24 20 14 18 19 22 24 16 13 22 20 20 24 23 19 19 21 21 22 24 26 26 25 25 25 26 27 29 29 29 30 33 35 34 32 33 34
30 28 27 25 24 20 17 17 18 18 21 21 17 15 16 15 17 17 14 18 17 19 24 25 26 27 28 28 28 27 26 27 29 29 30 31 32 35 33 32 32 34 35
28 29 27 26 23 18 17 18 17 16 17 16 15 14 10 15 16 15 19 15 22 24 26 29 29 29 28 28 28 29 30 31 32 32 33 35 35 35 33 33 35 36 34
28 27 27 27 26 24 19 19 20 19 19 20 20 19 15 17 22 22 25 25 27 29 31 32 32 31 30 29 31 33 34 34 34 35 36 35 35 35 34 35 35 34 32
27 26 26 26 25 26 27 24 22 23 23 23 25 25 23 22 25 28 30 30 31 31 33 33 34 33 33 33 35 36 37 38 38 37 35 35 36 35 37 36 35 33 33
30 29 28 26 24 26 27 28 24 24 25 26 27 29 29 29 29 29 30 32 33 34 35 37 36 37 37 38 38 39 40 39 39 36 35 35 36 38 38 38 35 33 33
32 33 32 29 28 27 27 28 29 29 29 30 30 31 33 35 36 37 39 39 38 37 38 41 41 42 42 41 40 42 41 38 37 36 35 36 38 37 37 37 34 34 34
31 34 30 31 32 31 30 30 32 32 33 35 36 37 38 39 41 42 43 43 43 43 44 46 46 47 47 45 44 44 40 38 36 36 37 37 38 37 38 35 33 34 34
29 28 31 32 33 34 34 35 37 37 37 39 41 41 42 43 44 45 47 48 48 49 48 49 49 49 48 46 44 41 37 36 35 36 37 38 39 37 35 34 33 33 34
32 35 37 38 39 41 42 41 41 43 44 44 43 45 46 46 46 46 47 46 48 49 50 49 49 48 45 43 42 37 38 37 37 39 41 39 39 38 35 33 33 34 35
37 39 42 44 45 46 48 48 47 46 46 45 43 44 44 45 45 46 41 42 44 43 47 49 45 38 36 39 41 41 47 44 38 41 40 41 41 39 37 37 38 36 36
42 44 45 47 49 48 49 50 49 45 41 42 42 39 36 37 40 39 39 41 41 39 41 38 33 35 37 38 36 33 34 40 40 39 38 42 42 42 39 38 38 38 37
44 43 43 44 45 44 44 45 42 42 43 40 38 38 36 36 35 36 38 36 37 39 35 33 32 37 38 40 37 39 41 41 40 43 43 43 41 44 42 39 38 39 40
41 41 40 40 41 41 42 39 40 41 36 38 36 34 34 39 37 37 38 39 37 34 32 33 34 37 39 43 43 39 40 41 43 42 43 44 45 47 41 39 39 41 43
Wind_Direction
3 359 2 343 351 187 199 232 221 233 245 225 210 218 225 229 230 231 232 227 215 199 195 194 202 234 306 326 331 323 317 306 308 311 320 334 338 341 336 330 324 314 301
5 7 4 351 331 284 281 251 250 240 235 229 213 217 223 223 226 232 232 223 220 208 206 219 238 273 286 302 307 306 306 305 292 296 303 312 317 314 308 308 314 317 315
358 3 354 348 317 315 299 284 258 251 246 241 235 230 237 234 228 231 240 234 225 225 229 241 255 265 272 284 289 292 293 290 292 301 304 306 306 303 302 304 311 309 304
339 345 351 351 322 306 298 286 273 269 263 258 247 240 241 244 235 236 236 238 233 233 239 247 253 261 272 275 272 271 271 275 282 288 290 295 299 303 312 314 310 305 304
333 329 331 335 323 305 305 292 272 259 260 268 251 246 239 240 242 236 235 236 237 239 242 247 253 259 261 262 264 265 271 277 282 284 291 297 298 298 299 299 299 298 297
330 321 318 317 319 299 303 305 277 264 255 253 256 252 250 246 238 237 237 238 241 243 246 251 256 256 259 264 266 274 281 284 286 292 292 291 295 297 298 298 298 300 301
326 319 315 313 311 310 307 294 269 253 250 245 248 252 257 252 248 243 242 241 246 249 250 249 252 256 259 263 268 274 278 283 287 290 292 293 292 295 297 298 297 297 297
320 318 312 310 326 318 316 309 262 235 246 240 243 245 252 252 245 243 245 240 240 243 244 242 245 256 266 270 271 276 282 285 287 289 293 293 294 294 295 294 296 298 300
321 318 319 313 320 333 315 296 280 249 230 232 233 239 242 238 241 240 242 241 243 247 252 257 259 261 262 267 276 279 284 289 292 295 294 293 292 295 297 299 302 301 300
317 318 319 317 323 322 325 313 297 291 231 221 228 232 236 230 232 233 239 247 257 257 257 260 265 267 269 277 281 286 288 289 290 289 287 289 294 298 299 300 300 301 301
312 317 321 322 323 320 318 326 315 307 234 230 226 230 227 225 229 233 239 250 257 260 257 263 267 271 276 282 285 287 288 289 289 289 292 296 298 298 298 301 303 303 301
308 312 316 319 321 323 322 316 325 291 247 224 228 228 232 226 229 229 233 246 257 261 265 269 274 281 283 285 286 288 290 291 294 296 296 298 298 299 301 303 302 303 303
302 304 309 311 313 322 319 316 319 310 292 244 228 221 226 241 237 253 258 238 245 264 275 280 282 283 283 282 281 282 286 291 295 297 296 296 295 297 303 305 302 302 300
298 294 299 305 304 309 306 300 310 304 290 276 258 252 235 239 252 257 272 252 256 268 275 278 280 282 283 283 284 287 290 294 295 297 293 292 293 298 301 298 297 297 298
293 290 290 291 291 290 294 286 284 291 292 297 291 252 264 256 257 282 287 280 277 281 282 283 284 284 283 284 284 287 292 295 296 295 293 291 296 301 298 298 297 298 296
290 290 287 286 286 286 286 285 281 271 271 280 281 282 275 267 278 280 278 280 279 279 279 280 281 281 282 281 282 286 291 291 292 291 288 291 298 297 297 296 296 294 292
288 288 290 287 283 282 285 288 285 281 273 273 275 270 268 265 266 270 276 276 276 277 278 279 279 279 277 277 282 287 289 290 290 289 291 294 296 294 297 293 291 288 291
288 293 291 279 281 279 278 282 284 278 279 281 278 276 272 268 266 267 270 275 277 278 278 279 278 278 279 280 283 285 285 287 288 288 287 290 292 294 291 287 285 286 290
286 287 288 286 285 282 278 280 283 283 283 281 279 278 275 271 270 272 275 276 275 276 276 277 279 280 279 281 284 285 286 286 285 282 284 288 289 288 284 284 285 287 288
278 279 277 281 278 277 279 281 282 283 283 283 283 282 279 278 277 276 278 278 278 276 275 276 277 278 278 280 281 282 283 282 278 281 287 289 287 284 284 284 284 284 286
289 286 283 282 283 284 284 284 284 285 284 283 282 281 279 277 275 276 276 275 275 273 272 272 274 277 278 278 279 281 281 275 274 281 286 286 287 283 281 279 282 285 290
283 284 286 288 290 290 290 289 287 286 285 283 281 279 279 279 277 275 274 272 273 273 274 275 274 274 276 278 280 273 279 279 280 280 283 285 288 285 281 283 283 282 284
286 287 288 288 288 287 288 288 287 285 283 283 280 280 281 280 279 276 275 272 271 273 274 273 274 275 278 278 280 274 277 274 276 278 283 285 286 282 279 281 278 278 281
284 284 285 286 287 287 286 285 285 283 282 285 285 283 282 277 279 277 274 266 269 272 275 271 269 274 280 281 274 281 282 283 280 279 280 286 287 276 271 273 276 281 285
285 285 284 283 282 281 280 281 281 282 285 285 285 285 282 282 279 274 266 268 272 262 279 284 277 276 279 275 282 286 283 281 278 277 282 286 283 277 272 274 279 283 286
288 289 288 284 280 279 279 278 276 278 278 290 291 288 284 297 282 276 272 273 274 279 281 282 277 274 281 291 283 283 276 278 277 281 283 283 282 277 269 275 282 286 287
Height
5872 5871 5864 5862 5859 5857 5856 5855 5856 5858 5858 5857 5857 5858 5859 5861 5863 5863 5864 5865 5866 5868 5870 5871 5871 5870 5869 5868 5868 5868 5866 5864 5862 5861 5861 5860 5859 5858 5858 5857 5857 5856 5855
5870 5868 5865 5863 5861 5858 5856 5855 5856 5857 5857 5857 5856 5856 5857 5859 5859 5860 5862 5863 5864 5866 5868 5869 5869 5868 5867 5865 5865 5865 5864 5862 5861 5860 5859 5858 5856 5856 5855 5854 5853 5853 5853
5869 5866 5865 5863 5860 5857 5855 5855 5854 5855 5854 5854 5853 5853 5854 5855 5856 5858 5859 5860 5861 5863 5865 5865 5865 5865 5864 5863 5863 5863 5862 5860 5859 5858 5856 5855 5854 5853 5853 5852 5850 5849 5849
5868 5865 5862 5860 5858 5856 5854 5853 5853 5851 5852 5850 5851 5851 5851 5853 5852 5854 5855 5856 5857 5858 5859 5861 5861 5861 5860 5860 5860 5860 5859 5858 5856 5855 5854 5852 5851 5850 5849 5849 5847 5845 5843
5865 5863 5859 5857 5855 5854 5853 5851 5851 5848 5849 5849 5848 5849 5849 5849 5849 5851 5851 5852 5853 5854 5855 5856 5856 5857 5857 5856 5856 5855 5855 5854 5852 5851 5850 5849 5848 5847 5845 5844 5842 5840 5837
5861 5860 5857 5854 5851 5850 5849 5848 5845 5843 5844 5845 5846 5846 5846 5846 5846 5847 5849 5849 5850 5850 5851 5851 5852 5852 5852 5851 5851 5850 5849 5848 5847 5846 5845 5844 5842 5840 5839 5837 5835 5833 5831
5860 5856 5852 5849 5847 5846 5841 5839 5838 5839 5838 5839 5839 5841 5842 5842 5843 5843 5844 5844 5845 5846 5846 5847 5847 5847 5847 5846 5845 5844 5844 5843 5842 5840 5839 5838 5835 5834 5831 5830 5827 5825 5822
5857 5855 5850 5845 5843 5838 5833 5829 5829 5830 5831 5833 5833 5834 5835 5837 5837 5838 5839 5840 5839 5840 5841 5842 5842 5842 5841 5840 5839 5838 5838 5837 5836 5835 5833 5831 5829 5826 5824 5822 5819 5817 5813
5851 5848 5845 5841 5838 5834 5829 5823 5825 5823 5822 5823 5825 5827 5829 5829 5831 5832 5833 5835 5835 5835 5836 5836 5836 5836 5835 5835 5834 5833 5831 5830 5829 5828 5825 5823 5821 5818 5816 5813 5809 5806 5803
5847 5843 5839 5835 5833 5829 5825 5820 5819 5819 5817 5809 5816 5818 5821 5823 5824 5826 5827 5828 5830 5831 5831 5830 5829 5829 5828 5828 5826 5826 5825 5823 5821 5820 5818 5815 5812 5810 5807 5804 5801 5797 5794
5841 5839 5833 5829 5827 5825 5821 5818 5816 5814 5811 5809 5812 5813 5814 5816 5818 5821 5822 5823 5823 5825 5825 5825 5823 5822 5821 5820 5818 5818 5817 5815 5813 5811 5808 5806 5803 5801 5797 5794 5791 5787 5784
5836 5832 5828 5825 5822 5819 5816 5813 5811 5810 5810 5807 5805 5808 5809 5810 5813 5813 5815 5817 5817 5819 5818 5817 5816 5816 5815 5812 5811 5809 5808 5806 5804 5802 5798 5795 5793 5789 5787 5785 5780 5776 5774
5828 5826 5824 5821 5818 5814 5810 5809 5807 5808 5808 5807 5803 5803 5804 5806 5807 5808 5809 5809 5809 5810 5811 5810 5809 5808 5807 5805 5804 5802 5800 5798 5795 5792 5789 5786 5784 5781 5777 5772 5769 5767 5764
5819 5819 5817 5815 5814 5811 5809 5807 5805 5804 5803 5803 5801 5800 5800 5801 5802 5803 5803 5802 5803 5804 5804 5802 5801 5800 5799 5796 5794 5793 5791 5788 5786 5783 5780 5777 5774 5770 5767 5764 5761 5758 5755
5812 5811 5810 5809 5808 5807 5805 5804 5803 5801 5800 5798 5797 5795 5794 5795 5795 5795 5796 5796 5796 5795 5795 5794 5793 5792 5790 5788 5785 5783 5781 5777 5774 5772 5769 5767 5763 5759 5756 5754 5751 5749 5745
5804 5804 5803 5802 5801 5799 5799 5799 5798 5796 5796 5795 5793 5792 5791 5791 5789 5788 5788 5788 5788 5787 5786 5785 5783 5782 5780 5778 5776 5772 5769 5766 5763 5761 5759 5756 5752 5749 5746 5744 5742 5739 5736
5797 5796 5795 5794 5792 5791 5790 5790 5789 5788 5787 5787 5787 5786 5786 5785 5783 5780 5779 5779 5778 5777 5775 5774 5773 5771 5770 5768 5765 5760 5757 5755 5752 5749 5746 5743 5741 5739 5737 5735 5732 5729 5726
5790 5789 5787 5787 5786 5784 5783 5782 5781 5780 5779 5778 5778 5777 5776 5775 5774 5773 5771 5770 5768 5766 5765 5763 5762 5760 5758 5755 5752 5747 5746 5743 5741 5737 5735 5733 5731 5728 5727 5725 5723 5719 5716
5781 5780 5780 5778 5777 5777 5775 5774 5773 5771 5771 5770 5769 5767 5766 5765 5763 5762 5760 5759 5757 5754 5752 5749 5747 5745 5743 5741 5737 5734 5733 5731 5729 5726 5725 5723 5720 5718 5716 5714 5712 5709 5707
5773 5773 5772 5771 5768 5767 5766 5765 5764 5762 5760 5759 5757 5755 5754 5752 5750 5749 5747 5744 5743 5741 5738 5735 5733 5731 5729 5727 5725 5723 5721 5720 5718 5714 5713 5711 5708 5706 5704 5702 5700 5698 5695
5762 5761 5761 5760 5757 5755 5755 5754 5751 5750 5749 5746 5743 5742 5740 5738 5736 5735 5732 5729 5727 5724 5722 5721 5718 5717 5715 5713 5711 5709 5707 5706 5704 5703 5701 5698 5697 5695 5692 5690 5688 5686 5683
5752 5750 5748 5748 5746 5742 5740 5740 5739 5736 5734 5732 5729 5727 5724 5723 5721 5719 5716 5714 5711 5709 5707 5705 5703 5702 5701 5699 5698 5697 5695 5693 5692 5691 5689 5687 5685 5683 5680 5677 5676 5674 5672
5742 5739 5737 5734 5733 5732 5729 5726 5724 5723 5720 5718 5715 5712 5710 5707 5704 5702 5701 5699 5696 5694 5692 5690 5690 5689 5687 5685 5685 5684 5682 5680 5678 5677 5676 5673 5671 5669 5667 5665 5664 5662 5660
5730 5728 5726 5723 5720 5718 5715 5712 5710 5708 5705 5702 5700 5697 5696 5692 5688 5686 5685 5684 5683 5681 5678 5677 5677 5675 5674 5674 5672 5672 5670 5668 5665 5664 5663 5661 5659 5658 5656 5654 5652 5650 5647
5717 5715 5712 5709 5706 5702 5699 5696 5694 5691 5690 5688 5686 5683 5680 5677 5677 5675 5672 5670 5669 5667 5664 5663 5664 5663 5662 5661 5660 5659 5657 5655 5653 5651 5649 5646 5645 5644 5642 5639 5637 5636 5634
5702 5699 5696 5693 5690 5688 5684 5681 5680 5679 5676 5674 5673 5670 5668 5665 5663 5661 5659 5656 5654 5653 5653 5653 5653 5652 5650 5647 5645 5644 5643 5641 5638 5636 5634 5631 5631 5629 5627 5626 5624 5622 5620